Terug naar catalogus

BREEZE-M DEB

LostHEO
NORAD 48538·DEBRIS·🇷🇺 Russia

Gelanceerd Mar 14, 2008 vanaf Baikonur Cosmodrome

Loading…

Volgende Passages (komende 24 uur)

TLE

VerouderdSource: Space-Track

Epoch: Feb 7, 2023, 04:37 UTC

1 48538U 08011ED  23038.19240736  .00000299  00000-0  17459-2 0  9994
2 48538  50.2708  11.4951 6533454 208.0839  91.4430  3.10208391984956

Volg BREEZE-M DEB in realtime met AllMySat

Download on the App Store